Hourly Data Report for May 28, 2003

SHERBROOKE A
QUEBEC

45°26'00.000" N
71°41'00.000" W
241.40 m
7028124
71610
YSC

Download Data

Hourly Data (May 2003)
Hourly Data Report for May 28, 2003
TIME
LST
Temp Definition
°C
Dew Point Definition
°C
Rel Hum Definition
%
Precip. Amount Definition
mm

Wind Dir Definition
10's deg

Wind Spd Definition
km/h
Visibility Definition
km
Stn Press Definition
kPa
Hmdx Definition


Wind Chill Definition


Weather Definition


00:00 7.2 6.9 98   10 4 0.8 98.44      
01:00 7.3 7.2 99   6 7 3.9 98.41      
02:00 6.8 6.6 99   7 4 15.0 98.37      
03:00 5.8 5.6 99     0 15.0 98.33      
04:00 6.2 5.9 98   12 6 15.0 98.31      
05:00 7.2 6.7 97   5 4 15.0 98.29      
06:00 7.9 7.6 98   9 4 11.3 98.26      
07:00 9.0 8.5 97     0 24.1 98.21     Cloudy
08:00 10.9 9.8 93     0 19.3 98.13     Mostly Cloudy
09:00 12.2 10.5 89     0 24.1 98.06     Mostly Cloudy
10:00 14.4 11.5 83     0 24.1 97.99     Mostly Cloudy
11:00 15.5 11.4 77     0 24.1 97.93     Mostly Cloudy
12:00 16.6 9.9 65   7 4 24.1 97.84     Cloudy
13:00 18.0 10.1 60   16 4 24.1 97.76     Mostly Cloudy
14:00 14.6 12.4 87   16 9 19.3 97.74     Rain Showers
15:00 14.7 13.3 91   12 7 19.3 97.70     Rain Showers
16:00 14.4 12.2 87   15 9 24.1 97.65     Rain Showers
17:00 12.8 10.7 87   12 9 9.7 97.61     Rain
18:00 12.7 11.7 94     0 12.9 97.56     Rain
19:00 12.3 11.7 96     0 15.0 97.51      
20:00 11.7 11.1 96   10 4 15.0 97.46      
21:00 11.5 11.1 97   7 4 9.7 97.45     Rain
22:00 11.2 10.8 97     0 3.2 97.40      
23:00 10.8 10.6 99   1 4 1.6 97.32     Rain

Notes on Data Quality.

Legend

  • E = Estimated
  • M = Missing
  • NA = Not Available*
  • [empty] = Indicates an unobserved value
Date modified: